www.pogodaiklimat.ru
ПОГОДА в Зее
Время
(UTC), дата
06 27.06
09 27.06
12 27.06
15 27.06
18 27.06
21 27.06
00 28.06
03 28.06
06 28.06
09 28.06
12 28.06
15 28.06
18 28.06
21 28.06
00 29.06
03 29.06
06 29.06
09 29.06
12 29.06
15 29.06
18 29.06
21 29.06
00 30.06
03 30.06
06 30.06
09 30.06
12 30.06
15 30.06
18 30.06
21 30.06
00 1.07
03 1.07
06 1.07
09 1.07
12 1.07
15 1.07
18 1.07
21 1.07
00 2.07
03 2.07
06 2.07
09 2.07
12 2.07
15 2.07
18 2.07
21 2.07
00 3.07
03 3.07
06 3.07
09 3.07
12 3.07
15 3.07
18 3.07
21 3.07
00 4.07
03 4.07
Ветер
(напр.,м/с)
Видим. Явления Облачность Т
(С)
Тd
(С)
f
(%)
Тe
(С)
Тes
(С)
Комфортность P
(гПа)
Po
(гПа)
Тmin
(С)
Tmax
(С)
R
(мм)
R24
(мм)
S
(см)
Ю 2 50 км 9/5 600 м
[Cb cap Ac trans Ci sp]
+25.4 +15.5 54 +28 +32 жарко 1003.2 977.1
Ю 2 50 км {гроза} 10/4 600 м
[Cu med, cong Ac trans Ci sp]
+24.8 +14.8 54 +28 +29 жарко 1003.3 977.2
штиль 0 50 км {гроза} 10/4 600 м
[Sc Ac trans Ci sp]
+19.6 +15.3 76 +21 +21 комфорт 1004.9 978.3 +27.0
штиль 0 50 км 10/8 600 м
[Sc Ac As]
+17.2 +15.0 87 +17 +17 1005.7 978.8
штиль 0 50 км 10/3 600 м
[Sc Ac trans Ci sp]
+15.2 +14.3 94 +15 +15 1005.9 978.8
штиль 0 50 км 10/1 600 м
[Sc Ci fib]
+15.0 +13.2 89 +15 +16 1006.3 979.2
штиль 0 50 км 10/5 600 м
[Sc Ac trans Ci fib]
+19.8 +15.9 78 +22 +25 комфорт 1006.6 980.0 +14.0
Ю 1 50 км 10/3 600 м
[Cu med, cong Ac trans Ci fib]
+23.9 +16.6 64 +27 +34 жарко 1005.4 979.2
СВ 1 50 км слаб. ливневой дождь, в посл. час гроза 10/8 600 м
[Cb cap Ac trans Ci fib]
+24.8 +14.5 53 +27 +29 жарко 1004.3 978.2
штиль 0 50 км 10/3 600 м
[Sc Ac trans Ci fib]
+22.8 +15.5 63 +27 +28 душно 1004.6 978.3
штиль 0 50 км 10/5 600 м
[Cb cap Ci sp]
+19.8 +14.9 73 +22 +22 комфорт 1005.9 979.3 +27.1 0.0
ЮВ 1 50 км 8/0
[Ci sp]
+17.2 +14.0 81 +18 +18 1006.6 979.7
З 1 50 км 6/3 600 м
[Sc Ci sp]
+15.9 +12.8 82 +17 +17 1007.5 980.5
ЮВ 1 50 км 3/0
[Ci sp]
+16.2 +13.1 82 +17 +18 1008.4 981.4
СВ 2 50 км ясно +22.5 +13.8 58 +26 +35 жарко 1008.0 981.5 +15.0
С 1 50 км 3/3 600 м
[Cu hum]
+26.8 +13.8 45 +29 +42 жарко 1007.0 981.0
ЮВ 2 50 км 4/4 600 м
[Cb cap]
+28.5 +13.1 39 +30 +38 жарко 1005.3 979.4
СВ 1 50 км 3/1 600 м
[Cu hum Ci sp]
+28.5 +9.4 30 +28 +32 жарко 1004.9 979.0
штиль 0 50 км ясно +20.7 +13.1 62 +23 +23 комфорт 1006.3 979.7 +28.7
штиль 0 50 км ясно +15.2 +12.1 82 +15 +15 1007.6 980.5
штиль 0 50 км 3/3 1000 м
[Sc Ac trans]
+13.4 +12.0 91 +13 +13 1008.0 980.7
штиль 0 50 км 5/1 600 м
[Sc Ac trans Ci fib]
+14.0 +11.9 87 +14 +15 1008.2 980.9
ЮВ 1 50 км ясно +23.5 +13.1 52 +26 +36 жарко 1007.4 981.0 +12.7
СВ 1 50 км 3/0
[Ci sp]
+28.2 +12.5 38 +30 +47 жарко 1006.5 980.6
СВ 2 50 км 1/0
[Ci sp]
+30.1 +10.5 30 +30 +42 жарко 1005.1 979.4
штиль 0 50 км 3/0
[Ci sp]
+30.9 +12.5 32 +32 +36 жарко 1004.4 978.8
штиль 0 50 км 8/0
[Ac trans Ci sp]
+23.4 +15.0 59 +27 +27 душно 1005.2 978.9 +31.0
штиль 0 50 км 10/0
[Ci sp]
+18.1 +14.8 81 +18 +18 1006.1 979.3
штиль 0 50 км 6/0
[Ac trans Ci sp]
+15.0 +13.1 88 +15 +15 1006.5 979.4
С 1 50 км 5/0
[Ci sp]
+15.6 +12.1 80 +16 +18 1006.8 979.7
штиль 0 50 км ясно +25.7 +14.6 50 +28 +41 жарко 1005.6 979.5 +14.6
С 1 50 км ясно +30.9 +15.4 39 +33 +52 опасность
солнечного
удара
1004.6 979.0
ЮВ 2 50 км 1/1 600 м
[Cu hum]
+32.1 +13.4 32 +33 +44 жарко 1003.8 978.3
СВ 1 50 км ясно +31.9 +12.0 30 +32 +36 жарко 1003.3 977.8
С 1 50 км 1/0
[Ci sp]
+26.9 +11.0 37 +28 +28 жарко 1005.7 979.7 +32.5
штиль 0 10 км дым 3/0
[Ci sp]
+19.5 +11.3 59 +21 +21 комфорт 1008.7 982.0
штиль 0 10 км дым 5/0
[Ci sp]
+16.4 +12.3 77 +16 +16 1011.0 983.9
штиль 0 20 км 10/0
[Ci sp]
+15.0 +12.9 87 +15 +16 1012.2 984.9
штиль 0 20 км 10/0
[Ci sp]
+20.9 +13.9 64 +23 +33 комфорт 1012.8 986.1 +14.4
ЮЗ 1 20 км 10/0
[Ci sp]
+24.8 +11.0 42 +26 +41 жарко 1011.5 985.1
ЮЗ 1 20 км 10/0
[Ci sp]
+26.8 +14.2 46 +29 +41 жарко 1009.6 983.4
штиль 0 20 км 10/0
[Ci sp]
+25.9 +13.1 45 +28 +31 жарко 1008.4 982.3
штиль 0 20 км 10/0
[Ci sp]
+19.7 +15.9 79 +22 +22 комфорт 1009.3 982.6 +26.9
штиль 0 10 км дым 10/0
[Ci sp]
+16.5 +14.8 90 +16 +16 1008.9 981.9
штиль 0 10 км дым 10/0
[Ci sp]
+14.3 +13.6 96 +14 +14 1008.3 981.1
штиль 0 10 км дым 10/0
[Ci sp]
+14.0 +13.0 94 +14 +15 1007.6 980.4
штиль 0 10 км дым 10/0
[Ac trans Ci sp]
+19.0 +15.3 79 +20 +27 1007.1 980.4 +13.3
Ю 1 20 км 5/0
[Ci sp]
+25.4 +17.7 62 +30 +47 душно 1004.3 978.3
ЮЗ 1 20 км 6/0
[Ci sp]
+29.2 +16.7 47 +33 +46 очень
душно
1001.1 975.4
СЗ 1 20 км 10/0
[Ci sp]
+28.5 +17.6 52 +33 +36 очень
душно
999.4 973.7
штиль 0
{10}
50 км слаб. ливневой дождь {гроза} 10/10 600 м
[Cb cap]
+17.5 +16.8 96 +17 +17 1001.6 974.9 +29.7 3
штиль 0 50 км {ливн. дождь} 10/10 600 м
[Cb cap]
+16.7 +16.1 96 +17 +17 1001.3 974.5
штиль 0 50 км {ливн. дождь} 10/10 600 м
[Cb cap]
+15.1 +14.8 98 +15 +15 1001.4 974.5
штиль 0 50 км 10/0
[Ci sp]
+15.4 +15.1 98 +15 +16 1001.1 974.2
СВ 1 50 км 10/0
[Ci sp]
+19.9 +13.3 66 +23 +31 комфорт 1000.2 973.8 +13.8 0.0
СВ 1 50 км 10/0
[Ac trans Cs]
+22.6 +12.0 51 +25 +38 комфорт 999.4 973.2
Местоположение метеостанции Зея (Амурская область, Россия): широта 53.73 долгота 127.20 высота над уровнем моря 230 м.
В архиве по умолчанию представлена погода в Зее за последнюю неделю. Архивные данные за месяц целиком и за предыдущие месяцы, начиная с января 2011 года, Вы можете получить, выбрав интересующий диапазон дат из раскрывающегося списка и нажав кнопку "Найти!".
*Определитесь, кто Вы:
Внимание! Время в таблицах - всемирное. Для получения местного времени необходимо прибавить поправку, которая равна 9 ч.
Смотрите также архив погоды в соседних городах и на ближайших метеорологических станциях:
Партнеры нашего сайта:      
Пояснения к столбцам:
  • Ветер - указаны скорость ветра в м/с - средняя за 10 мин, порывы в срок и между сроками (в фигурных скобках) и направление, откуда дует ветер: С - северный,
  • СВ - северо-восточный, В - восточный, ЮВ - юго-восточный, Ю - южный, ЮЗ - юго-западный, З - западный, СЗ - северо-западный.
  • Видимость - горизонтальная дальность видимости в метрах или километрах. При видимости от 1 до 10 км при отсутствии осадков обычно наблюдается дымка, при ухудшении видимости до 1 км и менее - туман. В сухую погоду видимость может ухудшаться дымом, пылью или мглою.
  • Явления - указаны атмосферные явления, наблюдавшиеся в срок или в последний час перед сроком; фигурными скобками обозначены явления, наблюдавшиеся между сроками (за 1-3 часа до срока); квадратными скобками обозначены град или гололедные отложения с указанием их диаметра в мм.
  • Облачность - указаны через наклонную черту общая и нижняя облачность в баллах и высота нижней границы облаков в метрах; квадратными скобками обозначены формы облаков: Ci - перистые, Cs - перисто-слоистые, Cc - перисто-кучевые, Ac - высококучевые, As - высокослоистые, Sc - слоисто-кучевые, Ns - слоисто-дождевые, Cu - кучевые, Cb - кучево-дождевые. Подробнее классификацию облаков см. в Атласе облаков (PDF).
  • T - Температура воздуха - температура, измеренная на высоте 2 м над землей.
  • Td - Температура точки росы - температура, при понижении до которой содержащийся в воздухе водяной пар достигнет насыщения.
  • f - Относительная влажность воздуха - влажноcть воздуха, измеренная на высоте 2 м над землей.
  • Te - Эффективная температура - температура, которую ощущает одетый по сезону человек в тени. Характеристика душности погоды. При расчете учитывается влияние влажности воздуха и скорости ветра на теплоощущения человека.
  • Tes - Эффективная температура на солнце - температура, которую ощущает человек, с поправкой на солнечный нагрев. Характеристика знойности погоды. Зависит от высоты солнца над горизонтом, облачности и скорости ветра. Ночью, в пасмурную погоду, а также при ветре 12 м/с и более поправка равна нулю.
  • P - Атмосферное давление - приведенное к уровню моря атмосферное давление.
  • Po - Атмосферное давление - измеренное на уровне метеостанции атмосферное давление.
  • Tmin - Минимальная температура - минимум температуры воздуха на высоте 2 м над землей.
  • Tmax - Максимальная температура - максимум температуры воздуха на высоте 2 м над землей.
  • R - Количество осадков - Количество выпавших осадков за период времени, мм. При наведении курсора мыши на число - период времени, за который выпало указанное количество осадков.
  • R24 - Количество осадков - Количество выпавших осадков за 24 часа, мм.
  • S - Снежный покров - Высота снежного покрова, см. При наведении курсора мыши на число - состояние снежного покрова и степень покрытия местности в баллах.